Location: Allos
(44.2333°N, 6.6333°E)
Time: 23:32:47
(UTC+00:00)

SAR-Lupe-4 - Pass Details

Date: 25 April 2021
Orbit: 483 x 483 km, 98.2° (Epoch: 13 April)

Event Time Altitude Azimuth Distance (km) Brightness Sun altitude
Rises 19:32:42 0° 3° (N) 2,560 7.6 -10.9°
Reaches altitude 10° 19:34:56 10° 352° (N) 1,674 6.9 -11.3°
Maximum altitude 19:38:05 29° 291° (WNW) 916 5.8 -11.7°
Drops below altitude 10° 19:41:12 10° 230° (SW) 1,662 6.5 -12.2°
Sets 19:43:25 0° 219° (SW) 2,537 7.3 -12.5°
